This is the latest recevied weather packets stored in our database for station/object W4OTS. If no packets are shown the sender has not sent any weather packets the latest 10 day(s).
| Time | Temp. | Humidity | Pressure | Rain* | Wind** | Luminosity | Snow |
|---|---|---|---|---|---|---|---|
| 1777534037 | 15.56° C | 91% | 1011 hPa | 0 mm | - | 0 W/m² | - |
| 1777533735 | 15.56° C | 91% | 1011 hPa | 0 mm | - | 0 W/m² | - |
| 1777533430 | 15.56° C | 91% | 1011 hPa | 0 mm | - | 0 W/m² | - |
| 1777533126 | 15.56° C | 91% | 1010.8 hPa | 0 mm | - | 0 W/m² | - |
| 1777532824 | 16.11° C | 92% | 1010.8 hPa | 0 mm | - | 0 W/m² | - |
| 1777532520 | 16.11° C | 91% | 1010.8 hPa | 0 mm | - | 0 W/m² | - |
| 1777532217 | 16.11° C | 91% | 1010.8 hPa | 0 mm | - | 0 W/m² | - |
| 1777531914 | 16.67° C | 90% | 1010.6 hPa | 0 mm | - | 0 W/m² | - |
| 1777531609 | 16.67° C | 87% | 1010.7 hPa | 0 mm | - | 0 W/m² | - |
| 1777531307 | 16.67° C | 88% | 1010.7 hPa | 0 mm | - | 0 W/m² | - |
| 1777531005 | 16.67° C | 87% | 1010.9 hPa | 0 mm | - | 0 W/m² | - |
| 1777530702 | 16.67° C | 89% | 1010.9 hPa | 0 mm | - | 0 W/m² | - |
| 1777530399 | 16.11° C | 90% | 1011 hPa | 0 mm | - | 0 W/m² | - |
| 1777530095 | 16.11° C | 90% | 1011 hPa | 0 mm | - | 0 W/m² | - |
| 1777529793 | 16.67° C | 89% | 1011.2 hPa | 0 mm | - | 0 W/m² | - |
| 1777529488 | 16.67° C | 89% | 1011.3 hPa | 0 mm | - | 0 W/m² | - |
| 1777529186 | 17.22° C | 85% | 1011.3 hPa | 0 mm | - | 0 W/m² | - |
| 1777528881 | 17.22° C | 85% | 1011 hPa | 0 mm | - | 0 W/m² | - |
| 1777528578 | 17.78° C | 84% | 1011.2 hPa | 0 mm | - | 0 W/m² | - |
| 1777528276 | 17.78° C | 82% | 1011.5 hPa | 0 mm | - | 0 W/m² | - |
| 1777527974 | 17.78° C | 82% | 1011.6 hPa | 0 mm | - | 0 W/m² | - |
| 1777527669 | 17.78° C | 83% | 1012 hPa | 0 mm | - | 0 W/m² | - |
| 1777527365 | 17.22° C | 84% | 1011.9 hPa | 0 mm | - | 0 W/m² | - |
| 1777527061 | 17.22° C | 85% | 1012 hPa | 0 mm | - | 0 W/m² | - |
| 1777526756 | 17.22° C | 86% | 1012.3 hPa | 0 mm | - | 0 W/m² | - |
* Rain latest hour (hover to see other rain measurements)
** Current wind speed in m/s (hover to see current wind gust speed)